Regional Weather Roundup
Issued by NWS

Home | Current Version | Previous Version | Text Only | Print | Product List | Glossary Off
Versions: 1 2 3 4 5 6 7 8 9 10 11 12 13 14 15 16 17 18 19 20 21 22 23 24 25 26 27 28 29 30 31 32 33 34 35 36 37 38 39 40 41 42 43 44 45 46 47 48 49 50

000
ASUS43 KLOT 201006
RWRIL

ILLINOIS REGIONAL WEATHER ROUNDUP
NATIONAL WEATHER SERVICE CHICAGO/ROMEOVILLE IL
500 AM CDT MON OCT 20 2014

NOTE: "FAIR" INDICATES FEW OR NO CLOUDS BELOW 12,000 FEET WITH NO
SIGNIFICANT WEATHER AND/OR OBSTRUCTIONS TO VISIBILITY.

* THESE STATIONS ARE NOT UNDER NWS QUALITY CONTROL. THEY ALSO MAY NOT
  REPORT WEATHER SUCH AS PRECIPITATION OR FOG.

ILZ001-002-007-009-015-016-024-201100-
NORTHWEST ILLINOIS

CITY           SKY/WX    TMP DP  RH WIND       PRES   REMARKS
MOLINE         CLEAR     49  44  83 W7        29.86S
STERLING*      CLEAR     46  41  81 W6        29.84S
SAVANNA*       CLEAR     46  41  83 CALM      29.83S
$$

ILZ003-004-008-010-011-017-018-201100-
NORTH CENTRAL ILLINOIS

CITY           SKY/WX    TMP DP  RH WIND       PRES   REMARKS
ROCKFORD       PTCLDY    47  42  83 S7        29.82F
FREEPORT*      CLEAR     46  42  88 W7        29.83S
ROCHELLE*      PTCLDY    44  42  93 CALM      29.83S
DE KALB*       PTCLDY    47  43  87 SW9       29.82F
PERU*          CLEAR     51  46  83 SW10      29.84F
$$

ILZ005-006-012>014-019>023-201100-
NORTHEAST ILLINOIS

CITY           SKY/WX    TMP DP  RH WIND       PRES   REMARKS
CHICAGO-OHARE  PTCLDY    50  43  77 SW6       29.81F
CHICAGO-MIDWAY PTCLDY    50  45  83 SW5       29.82F
AURORA         CLEAR     44  40  85 S3        29.82F
LANSING*       CLEAR     48  44  85 SW8G16    29.85S
JOLIET*        CLEAR     46  43  91 S3        29.84F
WAUKEGAN       MOCLDY    50  43  77 SW6       29.78F
DUPAGE AIRPORT PTCLDY    44  42  93 SE6       29.81F
KANKAKEE*      PTCLDY    50  45  83 S9        29.86F
WHEELING       PTCLDY    51  43  74 S6        29.81F
MORRIS*        CLEAR     48  46  91 SW6       29.82F
ROMEOVILLE*    PTCLDY    47  45  93 SW8       29.83F
NORTHERLY ISL    N/A     51  44  77 W13         N/A
$$

LMZ740>746-201100-
SOUTHERN LAKE MICHIGAN

STATION/POSITION SKY/WX   TEMP    WIND        PRES    VSBY  WAVE
                          AIR SEA DIR/SP/G                  HT/PER
                          (F)     (DEG/KT/KT) (MB)    (MI)  (FT/S)
SOUTHERN BUOY              55 55  240/ 16/ 19 1008.6F         4/ 6
WAUKEGAN HARBOR            52     250/ 14/ 19   N/A
HARRISON CRIB              54     240/ 22/ 29   N/A
BURNHAM HARBOR             51     230/ 12/ 15   N/A
CALUMET HARBOR             51     210/ 10/ 13 1008.8F
MICHIGAN CITY              51     170/ 12/ 14   N/A
$$

ILZ025>027-034>036-040-047-049-050-058-095>099-201100-
WEST-CENTRAL ILLINOIS

CITY           SKY/WX    TMP DP  RH WIND       PRES   REMARKS
QUINCY         CLEAR     54  49  83 W9        29.91F
GALESBURG*     CLEAR     49  45  88 SW3       29.87F
MACOMB*        CLEAR     52  48  86 W9        29.91R
JACKSONVILLE*  CLEAR     54  49  81 SW9       29.91F
PITTSFIELD*    CLEAR     56  49  78 SW7       29.93S
$$

ILZ028>032-037-038-041>044-048-051>054-059>061-201100-
CENTRAL ILLINOIS

CITY           SKY/WX    TMP DP  RH WIND       PRES   REMARKS
PONTIAC        CLEAR     52  46  82 SW6       29.86S
BLOOMINGTON    CLEAR     50  46  85 SW12      29.89F
DECATUR        MOCLDY    50  46  86 SW10      29.92F
PEORIA         CLEAR     48  43  82 SW3       29.88S
LACON*         CLEAR     50  45  83 SW6       29.86S
LINCOLN*       CLEAR     54  47  79 SW7       29.88F
SPRINGFIELD    MOCLDY    54  47  77 SW8       29.91F
TAYLORVILLE    CLOUDY    50  46  87 SW7       29.93F
$$

ILZ033-039-045-046-055>057-062-063-201100-
EAST-CENTRAL ILLINOIS

CITY           SKY/WX    TMP DP  RH WIND       PRES   REMARKS
CHAMPAIGN      PTCLDY    48  45  89 S9        29.92S
DANVILLE*      CLOUDY    49  45  87 SW8       29.89F
RANTOUL*       CLOUDY    52  45  77 SW13      29.91S
MATTOON        PTCLDY    50  45  83 SW8       29.94F
PARIS*         CLOUDY    51  47  84 SW8       29.95F
$$

ILZ079-100>102-201100-
SOUTHWEST ILLINOIS

CITY           SKY/WX    TMP DP  RH WIND       PRES   REMARKS
ALTON          CLEAR     54  47  78 S7        29.96F
BELLEVILLE     CLOUDY    52  49  88 VRB2      29.97F
CAHOKIA*       CLOUDY    57  47  69 SW5       29.97F
SPARTA*        MOCLDY    51  46  83 S5        30.01S
$$

ILZ064>066-069>071-074>076-080>082-084>086-088>090-092>094-201100-
SOUTH-CENTRAL ILLINOIS

CITY           SKY/WX    TMP DP  RH WIND       PRES   REMARKS
CARBONDALE     MOCLDY    50  46  86 SW7       30.02S
CAIRO*         PTCLDY    50  47  90 CALM      30.05S
EFFINGHAM*     MOCLDY    51  45  80 CALM      29.96F
MARION         MOCLDY    50  48  93 S5        30.02F
MT. VERNON     MOCLDY    52  45  76 SW7       30.00S
CENTRALIA*     MOCLDY    51  46  83 SW7       29.98F
SALEM*         MOCLDY    54  49  85 SW7       29.99S
METROPOLIS*    MOCLDY    47  47 100 CALM      30.04F FOG
$$

ILZ067-068-072-073-078-083-087-091-201100-
SOUTHEAST ILLINOIS

CITY           SKY/WX    TMP DP  RH WIND       PRES   REMARKS
LAWRENCEVILLE  MOCLDY    48  46  93 S6        30.00F
FLORA*         MOCLDY    50  47  88 SW7       29.99S
FAIRFIELD*     CLOUDY    50  48  93 S5        29.99S
HARRISBURG*    MOCLDY    48  48 100 CALM      30.03F
ROBINSON*      CLOUDY    51  48  89 S6        29.99S
CARMI*         LGT RAIN  51  50  95 S7        30.00F
$$

ABBREVIATIONS USED IN REMARKS
   TC - TEMPERATURE IN CELSIUS
  WCI - WIND CHILL INDEX
   HX - HEAT INDEX
  VSB - VISIBILITY
$$



USA.gov is the U.S. government's official web portal to all federal, state and local government web resources and services.